Tracking 25710 objects as of 5-Jul-2022
HD Live streaming from Space Station
objects crossing your sky now

FENGYUN 1C DEB

Track FENGYUN 1C DEB now!
10-day predictions


NORAD ID: 32313
Int'l Code: 1999-025CXE
Perigee: 808.0 km
Apogee: 1,016.1 km
Inclination: 99.1 °
Period: 103.1 minutes
Semi major axis: 7283 km
RCS: 0.01 m2 (small)
Launch date: May 10, 1999
Source: People's Republic of China (PRC)
Launch site: Taiyaun Space Center, China (TSC)

Note: This is SATELLITE DEBRIS
aabbcc
Your satellite tracking list
Your tracking list is empty




NASA's NSSDC Master Catalog

Two Line Element Set (TLE):
1 32313U 99025CXE 22184.88769689  .00001098  00000-0  75536-3 0  9992
2 32313  99.1035 246.8415 0142835 301.5938  57.1349 13.96792920759573
Source of the keplerian elements: AFSPC